Wheeler AAF, HI

12:30 PM HST on May 25, 2017 (GMT -1000)
Wheeler Army Air Field

Weather History for PHHI - September, 2013

Change the Weather History Date:

Thursday, September 12, 2013

  Actual Average Record
Temperature  
Mean Temperature 77 °F -  
Max Temperature 85 °F 82 °F 87 °F (2002)
Min Temperature 69 °F 68 °F 64 °F (2010)
Cooling Degree Days 12    
Growing Degree Days 27 (Base 50)    
Moisture  
Dew Point 69 °F    
Average Humidity 74    
Maximum Humidity 89    
Minimum Humidity 54    
Precipitation  
Precipitation 0.00 in - - ()
Sea Level Pressure  
Sea Level Pressure 30.00 in    
Wind  
Wind Speed 8 mph (North)    
Max Wind Speed 15 mph    
Max Gust Speed 21 mph    
Visibility 10 miles    
Events Rain    
Averages and records for this station are not official NWS values.
T = Trace of Precipitation, MM = Missing Value Source: NWS Daily Summary

Daily Weather History Graph

Daily Weather History Graph

Search for Another Location

Airport or City:

Trip Planner

Search our weather history database for the weather conditions in past years. The results will help you decide how hot, cold, wet, or windy it might be!

Date:

Astronomy

Sep. 12, 2013 Rise Set
Actual Time 6:18 AM HST 6:37 PM HST
Civil Twilight 5:56 AM HST 6:59 PM HST
Nautical Twilight 5:30 AM HST 7:25 PM HST
Astronomical Twilight 5:03 AM HST 7:52 PM HST
Moon 1:09 PM HST (9/12) No Moon Set
Length of Visible Light 13h 03m
Length of Day
12h 19m
First Quarter, 52% of the Moon is Illuminated
Sep 12
First Quarter
Sep 19
Full
Sep 26
Last Quarter
Oct 4
New
Oct 11
First Quarter

Hourly Weather History & Observations

Time (HST) Temp. Heat Index Dew Point Humidity Pressure Visibility Wind Dir Wind Speed Gust Speed Precip Events Conditions
12:58 AM 71.2 °F - 65.8 °F 83% 30.03 in 10.0 mi West 6.9 mph - N/A   Clear
1:58 AM 72.3 °F - 66.4 °F 82% 30.01 in 10.0 mi NW 5.8 mph - N/A   Clear
2:58 AM 71.6 °F - 65.8 °F 82% 30.01 in 10.0 mi NW 5.8 mph - N/A   Clear
3:58 AM 70.7 °F - 65.7 °F 84% 30.00 in 10.0 mi WNW 4.6 mph - N/A   Clear
4:58 AM 71.1 °F - 66.6 °F 86% 29.97 in 10.0 mi NNW 4.6 mph - N/A   Clear
5:58 AM 70.3 °F - 66.7 °F 88% 29.98 in 10.0 mi NW 4.6 mph - N/A   Scattered Clouds
6:03 AM 71.6 °F - 68.0 °F 88% 30.01 in 10.0 mi NW 3.5 mph - N/A   Mostly Cloudy
6:18 AM 69.8 °F - 66.2 °F 88% 30.01 in 10.0 mi WNW 4.6 mph - N/A   Scattered Clouds
6:58 AM 71.1 °F - 67.8 °F 89% 29.99 in 10.0 mi NNW 4.6 mph - N/A   Clear
7:18 AM 73.4 °F - 68.0 °F 83% 30.03 in 10.0 mi NW 3.5 mph - N/A   Mostly Cloudy
7:53 AM 77.0 °F - 71.6 °F 83% 30.04 in 10.0 mi North 6.9 mph - N/A   Mostly Cloudy
7:58 AM 76.8 °F - 70.9 °F 82% 30.01 in 10.0 mi Variable 5.8 mph - N/A   Mostly Cloudy
8:58 AM 78.8 °F - 69.4 °F 73% 30.02 in 10.0 mi NE 5.8 mph - N/A   Mostly Cloudy
9:03 AM 78.8 °F - 69.8 °F 74% 30.05 in 10.0 mi North 5.8 mph - N/A   Mostly Cloudy
9:58 AM 80.8 °F 84.1 °F 69.8 °F 69% 30.01 in 10.0 mi ENE 12.7 mph - N/A   Mostly Cloudy
10:13 AM 82.4 °F 86.3 °F 69.8 °F 66% 30.04 in 10.0 mi ENE 11.5 mph - N/A   Mostly Cloudy
10:27 AM 82.4 °F 86.3 °F 69.8 °F 66% 30.04 in 10.0 mi North 5.8 mph - N/A Rain Light Rain
10:32 AM 80.6 °F 83.9 °F 69.8 °F 70% 30.04 in 10.0 mi NE 9.2 mph - N/A Rain Light Rain
10:36 AM 80.6 °F 83.9 °F 69.8 °F 70% 30.04 in 10.0 mi NNE 9.2 mph - N/A   Mostly Cloudy
10:41 AM 80.6 °F 83.9 °F 69.8 °F 70% 30.04 in 10.0 mi ENE 10.4 mph - N/A   Mostly Cloudy
10:46 AM 82.4 °F 86.3 °F 69.8 °F 66% 30.04 in 10.0 mi ENE 9.2 mph 17.3 mph N/A   Mostly Cloudy
10:51 AM 80.6 °F 83.9 °F 69.8 °F 70% 30.04 in 10.0 mi ENE 10.4 mph 17.3 mph N/A   Mostly Cloudy
10:56 AM 82.4 °F 86.3 °F 69.8 °F 66% 30.04 in 10.0 mi NE 9.2 mph - N/A   Overcast
10:58 AM 81.7 °F 85.2 °F 69.8 °F 67% 30.01 in 10.0 mi ENE 10.4 mph - 0.00 in   Overcast
11:03 AM 82.4 °F 86.3 °F 69.8 °F 66% 30.04 in 10.0 mi East 11.5 mph - N/A   Overcast
11:31 AM 80.6 °F 83.9 °F 69.8 °F 70% 30.03 in 6.0 mi NE 8.1 mph - N/A Rain Light Rain
11:36 AM 80.6 °F 84.6 °F 71.6 °F 74% 30.03 in 6.0 mi NE 10.4 mph - N/A Rain Heavy Rain
11:51 AM 78.8 °F - 71.6 °F 78% 30.03 in 9.0 mi NE 5.8 mph - N/A   Light Drizzle
11:57 AM 78.8 °F - 71.6 °F 78% 30.03 in 10.0 mi ENE 10.4 mph - N/A   Scattered Clouds
11:58 AM 78.8 °F - 71.6 °F 78% 30.00 in 10.0 mi ENE 10.4 mph - 0.00 in   Scattered Clouds
12:56 PM 84.2 °F 88.4 °F 69.8 °F 62% 30.00 in 10.0 mi ENE 15.0 mph 20.7 mph N/A   Light Drizzle
12:58 PM 83.5 °F 87.2 °F 69.1 °F 62% 29.96 in 10.0 mi ENE 15.0 mph 20.7 mph 0.00 in   Light Drizzle
1:07 PM 82.4 °F 85.4 °F 68.0 °F 62% 30.00 in 10.0 mi NNE 12.7 mph - N/A   Mostly Cloudy
1:17 PM 82.4 °F 85.4 °F 68.0 °F 62% 29.99 in 10.0 mi NE 9.2 mph - N/A   Mostly Cloudy
1:30 PM 82.4 °F 85.4 °F 68.0 °F 62% 29.99 in 10.0 mi NE 15.0 mph 19.6 mph N/A Rain Light Rain
1:40 PM 82.4 °F 85.4 °F 68.0 °F 62% 29.99 in 10.0 mi NE 10.4 mph - N/A   Mostly Cloudy
1:58 PM 84.7 °F 87.6 °F 67.3 °F 56% 29.95 in 10.0 mi NE 13.8 mph - 0.00 in   Mostly Cloudy
2:58 PM 85.3 °F 87.9 °F 66.7 °F 54% 29.94 in 10.0 mi North 10.4 mph 19.6 mph N/A   Scattered Clouds
3:58 PM 84.0 °F 87.0 °F 68.0 °F 58% 29.93 in 10.0 mi North 12.7 mph - N/A   Mostly Cloudy
4:01 PM 82.4 °F 86.3 °F 69.8 °F 66% 29.96 in 10.0 mi North 15.0 mph 17.3 mph N/A   Light Drizzle
4:18 PM 78.8 °F - 69.8 °F 74% 29.97 in 10.0 mi NNE 8.1 mph - N/A   Overcast
4:58 PM 81.1 °F 84.0 °F 68.5 °F 65% 29.93 in 10.0 mi North 8.1 mph - 0.00 in   Mostly Cloudy
5:58 PM 79.2 °F - 68.4 °F 69% 29.94 in 10.0 mi NNE 10.4 mph - N/A   Clear
6:38 PM 78.8 °F - 68.0 °F 69% 29.97 in 10.0 mi North 8.1 mph - N/A   Mostly Cloudy
6:48 PM 77.0 °F - 68.0 °F 74% 29.98 in 10.0 mi North 8.1 mph - N/A   Scattered Clouds
6:58 PM 77.4 °F - 68.2 °F 73% 29.95 in 10.0 mi North 6.9 mph - N/A   Partly Cloudy
7:58 PM 75.6 °F - 68.5 °F 79% 29.96 in 10.0 mi NNW 6.9 mph - N/A   Clear
8:41 PM 75.2 °F - 69.8 °F 83% 30.00 in 10.0 mi NNW 6.9 mph - N/A   Light Drizzle
8:50 PM 75.2 °F - 69.8 °F 83% 30.01 in 10.0 mi NNW 8.1 mph - N/A   Mostly Cloudy
8:58 PM 75.4 °F - 69.3 °F 81% 29.98 in 10.0 mi NNW 9.2 mph - 0.00 in   Overcast
9:23 PM 75.2 °F - 69.8 °F 83% 30.01 in 10.0 mi NNW 8.1 mph - N/A   Mostly Cloudy
9:28 PM 75.2 °F - 69.8 °F 83% 30.01 in 10.0 mi NNW 8.1 mph - N/A   Mostly Cloudy
9:33 PM 75.2 °F - 69.8 °F 83% 30.01 in 10.0 mi NNW 6.9 mph - N/A   Mostly Cloudy
9:58 PM 73.8 °F - 69.8 °F 87% 29.98 in 10.0 mi NNW 4.6 mph - N/A   Partly Cloudy
10:58 PM 73.8 °F - 69.8 °F 87% 29.96 in 10.0 mi NW 5.8 mph - N/A   Mostly Cloudy
11:48 PM 73.4 °F - 69.8 °F 88% 29.98 in 10.0 mi NW 6.9 mph - N/A   Mostly Cloudy
11:58 PM 73.9 °F - 70.0 °F 87% 29.95 in 10.0 mi NW 6.9 mph - N/A   Mostly Cloudy